Regional Weather Roundup
Issued by NWS

Home | Current Version | Previous Version | Text Only | Print | Product List | Glossary Off
Versions: 1 2 3 4 5 6 7 8 9 10 11 12 13 14 15 16 17 18 19 20 21 22 23 24 25 26 27 28 29 30 31 32 33 34 35 36 37 38 39 40 41 42 43 44 45 46 47 48 49 50

000
ASUS43 KIND 292309
RWRIN

WEATHER ROUNDUP FOR INDIANA
NATIONAL WEATHER SERVICE INDIANAPOLIS IN
700 PM EDT TUE JUL 29 2014

NOTE: "FAIR" INDICATES FEW OR NO CLOUDS BELOW 12,000 FEET WITH NO
SIGNIFICANT WEATHER AND/OR OBSTRUCTIONS TO VISIBILITY.

* - STATION DOES NOT REPORT WEATHER SUCH AS PRECIPITATION OR FOG.

+ - STATION NOT QUALITY CONTROLLED BY THE NATIONAL WEATHER SERVICE.
    USE DATA WITH CAUTION...ESPECIALLY DEWPOINT AND RELATIVE
    HUMIDITY OBSERVATIONS.

INZ001>003-010>013-019-020-300000-
NORTHWEST INDIANA

CITY           SKY/WX    TMP DP  RH WIND       PRES   REMARKS
GARY /AIRPORT/ MOSUNNY   75  55  50 CALM      30.00F
KNOX *+        SUNNY     74  54  49 N5        29.99F
LA PORTE +     SUNNY     72  53  50 NW6       30.01S
MICHIGAN CITY+ SUNNY     72  52  49 N3        30.01S
MONTICELLO +   MOSUNNY   69  62  78 SW6       30.01F
RENSSELAER +   RAIN      72  61  68 CALM      30.02F
VALPARAISO     MOSUNNY   74  55  51 N5        30.00F

$$

LMZ046-743>745-300000-
SOUTHERN LAKE MICHIGAN

STATION/POSITION TIME  TEMP WIND        PRES
                       AIR  DIR/SP/G
                 (UTC) (F)  (DEG/KT/KT) (MB)
MICHIGAN CITY    2300   68   30/  2/  3   N/A

$$

INZ004-005-014>016-021>024-300000-
NORTH CENTRAL INDIANA

CITY           SKY/WX    TMP DP  RH WIND       PRES   REMARKS
ELKHART        SUNNY     72  50  46 NW7       30.01S
GOSHEN         SUNNY     73  54  51 NW12      30.00S
LOGANSPORT +   MOSUNNY   70  57  64 W8        30.02F
PERU/GRISSOM   PTSUNNY   69  62  79 W9        30.02F
ROCHESTER +    SUNNY     77  52  41 N8        30.01F
SOUTH BEND     SUNNY     74  53  48 N10       30.00F
WARSAW +       MOSUNNY   72  54  53 NW10      30.01S

$$

INZ006>009-017-018-025>027-300000-
NORTHEAST INDIANA

CITY           SKY/WX    TMP DP  RH WIND       PRES   REMARKS
ANGOLA *+      MOSUNNY   68  61  77 CALM      29.99S
AUBURN +       PTSUNNY   68  57  68 CALM      30.00F
FORT WAYNE     PTSUNNY   66  60  81 SE6       30.02S
HUNTINGTON +   CLOUDY    70  60  72 W8        30.00F

$$

INZ028-029-035-036-043>045-051>053-300000-
WEST CENTRAL INDIANA

CITY           SKY/WX    TMP DP  RH WIND       PRES   REMARKS
GREENCASTLE +  SUNNY     72  59  64 W7        30.05F
LAFAYETTE      RAIN      63  61  93 W5        30.04R
TERRE HAUTE    PTSUNNY   76  57  51 W8        30.05F

$$

INZ030>032-037>040-046>048-054>057-064-065-300000-
CENTRAL INDIANA

CITY           SKY/WX    TMP DP  RH WIND       PRES   REMARKS
CP ATTERBURY + MOSUNNY   72  57  60 W5G20     30.05F
COLUMBUS       PTSUNNY   72  57  60 W9        30.05S
GREENWOOD *+   PTSUNNY   72  63  73 W5        30.05F
INDIANAPOLIS   PTSUNNY   70  60  70 S7        30.03F
-EAGLE CREEK   MOSUNNY   71  58  63 SW6       30.03F
KOKOMO *+      MOSUNNY   68  63  83 SW10      30.03F
MARION +       CLOUDY    65  59  83 SW5       30.03F
MT COMFORT *+  PTSUNNY   68  66  94 W12G20    30.05S
SHELBYVILLE    PTSUNNY   73  60  63 W13       30.04S
ZIONSVILLE +   RAIN      69  58  68 N8G21     30.06R

$$

INZ033-034-041-042-049-050-058-059-300000-
EAST CENTRAL INDIANA

CITY           SKY/WX    TMP DP  RH WIND       PRES   REMARKS
MUNCIE         LGT RAIN  66  59  78 W6        30.03F

$$

INZ060-061-067>069-081>083-085>088-300000-
SOUTHWEST INDIANA

CITY           SKY/WX    TMP DP  RH WIND       PRES   REMARKS
EVANSVILLE     SUNNY     78  53  41 W8        30.08F
WASHINGTON +   MOSUNNY   75  58  56 W9        30.05F

$$

INZ062-063-066-070>080-084-089>092-300000-
SOUTH CENTRAL AND SOUTHEAST INDIANA

CITY           SKY/WX    TMP DP  RH WIND       PRES   REMARKS
BEDFORD +      PTSUNNY   73  54  49 CALM      30.06
BLOOMINGTON    SUNNY     74  58  57 NW5       30.06F

$$



USA.gov is the U.S. government's official web portal to all federal, state and local government web resources and services.